Location: Coscollet
(42.1140°N, 1.2674°E)
Time: 12:58:03
(UTC+00:00)

Daily predictions for brighter satellites

Satellite Brightness Start Highest point End
(mag) Time Altitude Azimuth Time Altitude Azimuth Time Altitude Azimuth
CZ-2C R/B 4.5 19:52:46 10° S 19:58:05 45° W 20:03:38 10° NNW
Cosmos 1110 Rocket 4.3 19:53:24 10° S 19:58:17 44° ESE 20:03:11 10° NNE
STARLINK-1103 4.1 19:55:37 10° NW 19:59:42 53° NNE 20:03:46 10° ESE
CENTAUR R/B 4.4 19:54:20 10° NNW 20:01:11 31° NE 20:08:37 10° E
Cosmos 1850 Rocket 4.1 19:55:59 10° NNW 20:01:21 75° ENE 20:06:40 10° SSE
TSX-5 4.5 19:55:45 10° SSW 20:01:28 85° WNW 20:05:50 10° NNE
STARLINK-1101 4.0 20:00:35 10° NW 20:04:41 58° NNE 20:08:46 10° ESE
Cosmos 371 Rocket 4.2 20:00:03 10° SW 20:04:48 55° WNW 20:09:37 10° NNE
Cosmos 2221 Rocket 3.9 20:01:40 10° SSW 20:06:12 74° W 20:10:46 10° N
BREEZE M DEB (TANK) 3.5 19:57:44 10° WSW 20:07:21 87° SE 20:10:25 10° ENE
MOS 1 Rocket 3.5 20:03:11 10° N 20:07:29 69° WNW 20:11:43 10° SSW
Okean 1 Rocket 4.1 20:04:47 10° NNE 20:08:44 30° ENE 20:12:37 10° SE
NOSS 2-2 (D) 3.0 20:05:51 10° SSW 20:09:23 73° ESE 20:13:11 10° NE
STARLINK-1102 3.9 20:05:35 10° NW 20:09:42 63° NNE 20:13:49 10° ESE
Aureole 2 Rocket 2.3 20:06:55 10° SSW 20:09:59 73° WNW 20:12:55 10° NNE
ARGOS 4.3 20:05:38 10° S 20:10:42 43° W 20:15:51 10° NNW
CZ-2C R/B 2.8 20:05:18 10° NNE 20:10:58 88° ESE 20:16:34 10° SSW
Cosmos 1331 Rocket 4.1 20:06:06 10° S 20:11:05 52° ESE 20:16:07 10° NNE
STARLINK-1111 3.8 20:10:34 10° NW 20:14:43 68° NE 20:18:45 10° ESE
STARLINK-52 3.8 20:14:03 10° SSW 20:16:53 29° SE 20:19:43 10° ENE
Cosmos 1943 Rocket 2.6 20:13:55 10° S 20:19:03 41° ESE 20:24:16 10° NE
SL-4 R/B 2.3 20:14:32 10° SW 20:19:07 64° SE 20:23:54 10° ENE
STARLINK-1073 3.7 20:15:31 10° NW 20:19:40 74° NE 20:23:31 12° ESE
Okean 2 Rocket 3.6 20:15:43 10° NNW 20:20:04 61° W 20:24:22 10° S
SPOT 3 Rocket 3.7 20:15:52 10° S 20:21:00 75° WSW 20:26:12 10° NNW
GPS 2-04 Rocket1 4.2 20:18:40 10° WSW 20:21:03 18° SSW 20:23:15 11° SSE
Terra 4.0 20:21:04 10° E 20:22:56 12° ENE 20:24:49 10° NE
Nadezhda 4 Rocket 4.2 20:18:35 10° SSE 20:24:27 50° E 20:30:19 10° NNE
STARLINK-1121 3.6 20:20:29 10° NW 20:24:38 80° NE 20:28:16 13° ESE
NOSS 2-2 (E) 3.9 20:22:17 10° SW 20:25:46 56° NW 20:29:38 10° NNE
OE (NEXTSAT) 4.3 20:22:44 10° WSW 20:26:15 89° NNW 20:29:46 10° ENE
Cosmos 304 Rocket 4.1 20:21:29 10° SSW 20:26:15 72° WNW 20:31:04 10° NNE
H-2A R/B 4.3 20:24:13 10° SW 20:28:13 23° W 20:32:20 10° NW
NOSS 3-4 (A) 4.4 20:24:34 10° SSE 20:29:10 24° ESE 20:33:56 10° ENE
FALCON 9 DEB 4.1 20:26:27 10° S 20:29:17 25° SE 20:32:08 10° ENE
NOSS 3-4 (C) 4.4 20:24:42 10° SSE 20:29:18 24° ESE 20:34:01 10° ENE
Resurs 01 Rocket 1.6 20:24:58 10° SSE 20:29:25 87° E 20:33:54 10° NNW
USA 245 3.9 20:28:14 14° ESE 20:29:37 21° ENE 20:31:33 10° NNE
STARLINK-1106 3.6 20:25:29 10° NW 20:29:38 87° NE 20:33:05 15° SE
ATLAS CENTAUR R/B 3.1 20:28:18 13° SE 20:29:54 15° ESE 20:32:27 10° ENE
Cosmos 1833 Rocket 4.5 20:25:45 10° NW 20:30:24 27° WSW 20:35:02 10° SSW
Cosmos 1300 Rocket 4.3 20:26:50 10° NNW 20:31:09 52° W 20:35:26 10° S
Cosmos 1437 Rocket 3.2 20:27:45 10° SSW 20:31:31 62° WNW 20:35:20 10° N
SL-27 R/B 4.2 20:31:48 10° NNE 20:34:29 20° ENE 20:36:32 13° ESE
STARLINK-1112 3.6 20:30:27 10° NW 20:34:36 86° SW 20:37:52 16° SE
Cosmos 2279 Rocket 4.3 20:29:34 10° NNW 20:35:46 70° W 20:41:55 10° S
Cosmos 2151 Rocket 4.1 20:31:20 10° NNW 20:35:49 60° W 20:40:15 10° S
STARLINK-1128 3.6 20:35:26 10° NW 20:39:34 79° SW 20:42:38 18° SE
Cosmos 2297 4.4 20:36:51 10° SW 20:42:26 58° WNW 20:48:06 10° NNE
STARLINK-1113 3.7 20:40:26 10° NW 20:44:34 72° SW 20:47:26 19° SE
STARLINK-60 3.8 20:42:20 10° WSW 20:45:26 52° NNW 20:48:32 10° NE
Cosmos 2082 Rocket 3.6 20:41:01 10° NW 20:46:06 34° WSW 20:51:09 10° SSW
STARLINK-1119 3.7 20:45:25 10° WNW 20:49:32 66° SW 20:52:12 21° SE
Cosmos 1242 Rocket 4.2 20:48:43 17° ESE 20:49:36 18° E 20:52:12 10° NE
Cosmos 2369 Rocket 2.3 20:45:01 10° S 20:50:31 54° ESE 20:56:01 10° NNE
BREEZE-M DEB 2.1 20:48:48 10° WSW 20:50:59 88° NW 20:55:08 10° ENE
Cosmos 1674 Rocket 4.3 20:47:42 10° SSW 20:51:58 53° W 20:56:20 10° N
Cosmos 1378 Rocket 3.8 20:47:51 10° SSW 20:52:14 71° W 20:56:36 10° N
Abrixas rocket 3.3 20:50:35 10° W 20:53:08 26° SW 20:54:17 20° S
Cosmos 1766 3.7 20:49:27 10° N 20:53:19 47° ENE 20:55:35 22° SE
ATLAS 3B CENTAUR R/B 4.3 20:37:05 10° WSW 20:53:33 41° S 21:00:02 17° SE
MetOp-B 4.1 20:49:20 13° SSE 20:54:06 89° W 20:59:29 10° NNW
STARLINK-1114 3.8 20:50:25 10° WNW 20:54:31 60° SW 20:57:00 22° SSE
ATLAS 2AS CENTAUR R/B 3.3 20:49:11 10° S 20:56:40 49° ESE 21:04:15 10° NE
STARLINK-1130 (DARKSAT) 4.0 20:55:24 10° WNW 20:59:27 54° SW 21:01:46 23° SSE
NOSS 3-2 (A) 4.1 20:52:35 10° NW 21:00:14 80° NE 21:06:43 19° SE
Cosmos 292 Rocket 4.1 20:57:16 15° S 21:01:02 46° ESE 21:05:41 10° NNE
ERS-1 Rocket 3.5 20:59:14 20° SE 21:02:22 46° ENE 21:07:10 10° N
SL-8 R/B 3.9 20:57:42 10° WNW 21:02:26 60° SW 21:05:16 23° SE
STARLINK-1084 4.1 21:00:25 10° WNW 21:04:25 49° SW 21:06:33 24° SSE
STARLINK-1209 4.3 21:02:45 10° NW 21:05:37 32° NNE 21:07:22 18° E
BREEZE-M DEB (TANK) 4.1 20:50:57 10° WNW 21:05:41 75° NNE 21:09:24 18° ESE
STARLINK-1098 4.2 21:05:24 10° WNW 21:09:22 45° SW 21:11:19 25° SSE
STARLINK-1444 4.3 21:10:28 10° W 21:12:11 25° NNW 21:13:56 10° NNE
STARLINK-1452 4.3 21:10:30 10° W 21:12:12 24° NNW 21:13:54 10° NNE
STARLINK-1221 4.5 21:10:44 10° NW 21:13:28 28° NNE 21:15:08 17° ENE
STARLINK-1436 (VISORSAT) 4.4 21:12:16 10° W 21:13:57 23° NNW 21:15:39 10° NNE
STARLINK-1450 4.4 21:12:21 10° W 21:14:03 23° NNW 21:15:44 10° NNE
STARLINK-1392 4.4 21:12:27 10° W 21:14:08 23° NNW 21:15:50 10° NNE
STARLINK-1398 4.4 21:12:27 10° W 21:14:08 23° NNW 21:15:50 10° NNE
STARLINK-1399 4.4 21:12:27 10° W 21:14:09 23° NNW 21:15:50 10° NNE
STARLINK-1393 4.4 21:12:28 10° W 21:14:10 23° NNW 21:15:51 10° NNE
STARLINK-1395 4.4 21:12:28 10° W 21:14:10 23° NNW 21:15:51 10° NNE
STARLINK-1394 4.4 21:12:29 10° W 21:14:10 23° NNW 21:15:51 10° NNE
STARLINK-1415 4.4 21:12:29 10° W 21:14:10 23° NNW 21:15:51 10° NNE
STARLINK-1414 4.4 21:12:29 10° W 21:14:10 23° NNW 21:15:52 10° NNE
STARLINK-1396 4.4 21:12:29 10° W 21:14:10 23° NNW 21:15:52 10° NNE
STARLINK-1397 4.4 21:12:30 10° W 21:14:11 23° NNW 21:15:52 10° NNE
STARLINK-1416 4.4 21:12:30 10° W 21:14:11 23° NNW 21:15:53 10° NNE
STARLINK-1404 4.4 21:12:30 10° W 21:14:11 23° NNW 21:15:53 10° NNE
STARLINK-1401 4.4 21:12:30 10° W 21:14:11 23° NNW 21:15:53 10° NNE
STARLINK-1419 4.4 21:12:30 10° W 21:14:11 23° NNW 21:15:53 10° NNE
STARLINK-1408 4.4 21:12:31 10° W 21:14:12 23° NNW 21:15:54 10° NNE
STARLINK-1453 4.4 21:12:32 10° W 21:14:12 23° NNW 21:15:54 10° NNE
STARLINK-1437 4.4 21:12:32 10° W 21:14:12 23° NNW 21:15:54 10° NNE
STARLINK-1417 4.4 21:12:32 10° W 21:14:12 23° NNW 21:15:54 10° NNE
STARLINK-1402 4.4 21:12:32 10° W 21:14:12 23° NNW 21:15:55 10° NNE
STARLINK-1420 4.4 21:12:33 10° W 21:14:13 23° NNW 21:15:55 10° NNE
STARLINK-1413 4.4 21:12:33 10° W 21:14:14 23° NNW 21:15:56 10° NNE
STARLINK-1458 4.4 21:12:34 10° W 21:14:14 23° NNW 21:15:56 10° NNE
STARLINK-1406 4.4 21:12:33 10° W 21:14:14 23° NNW 21:15:56 10° NNE
STARLINK-1460 4.4 21:12:33 10° W 21:14:14 23° NNW 21:15:56 10° NNE
STARLINK-1422 4.4 21:12:33 10° W 21:14:14 23° NNW 21:15:57 10° NNE
STARLINK-1440 4.4 21:12:34 10° W 21:14:15 23° NNW 21:15:57 10° NNE
Cosmos 1092 Rocket 3.9 21:08:43 13° S 21:14:15 77° E 21:20:25 10° N
STARLINK-1445 4.4 21:12:35 10° W 21:14:16 23° NNW 21:15:58 10° NNE
STARLINK-1443 4.4 21:12:36 10° W 21:14:17 23° NNW 21:15:59 10° NNE
STARLINK-1446 4.4 21:12:36 10° W 21:14:18 23° NNW 21:15:59 10° NNE
STARLINK-1454 4.4 21:12:36 10° W 21:14:18 23° NNW 21:16:00 10° NNE
STARLINK-1457 4.4 21:12:37 10° W 21:14:19 23° NNW 21:16:00 10° NNE
STARLINK-1456 4.4 21:12:37 10° W 21:14:19 23° NNW 21:16:00 10° NNE
STARLINK-1451 4.4 21:12:38 10° W 21:14:19 23° NNW 21:16:01 10° NNE
STARLINK-1123 4.4 21:10:26 10° WNW 21:14:19 40° SW 21:16:07 26° S
STARLINK-1447 4.4 21:12:38 10° W 21:14:20 23° NNW 21:16:01 10° NNE
STARLINK-1455 4.4 21:12:39 10° W 21:14:20 23° NNW 21:16:02 10° NNE
STARLINK-1442 4.4 21:12:39 10° W 21:14:20 23° NNW 21:16:02 10° NNE
STARLINK-1449 4.4 21:12:39 10° W 21:14:21 23° NNW 21:16:02 10° NNE
STARLINK-1448 4.4 21:12:39 10° W 21:14:21 23° NNW 21:16:02 10° NNE
STARLINK-1441 4.4 21:12:40 10° W 21:14:21 23° NNW 21:16:03 10° NNE
STARLINK-1405 4.4 21:12:41 10° W 21:14:22 23° NNW 21:16:04 10° NNE
STARLINK-1423 4.4 21:12:41 10° W 21:14:22 23° NNW 21:16:04 10° NNE
STARLINK-1421 4.4 21:12:41 10° W 21:14:22 23° NNW 21:16:04 10° NNE
STARLINK-1410 4.4 21:12:41 10° W 21:14:23 23° NNW 21:16:04 10° NNE
STARLINK-1407 4.4 21:12:41 10° W 21:14:23 23° NNW 21:16:04 10° NNE
STARLINK-1400 4.4 21:12:42 10° W 21:14:23 23° NNW 21:16:05 10° NNE
STARLINK-1439 4.4 21:12:42 10° W 21:14:24 23° NNW 21:16:05 10° NNE
STARLINK-1409 4.4 21:12:43 10° W 21:14:25 23° NNW 21:16:06 10° NNE
STARLINK-1351 4.4 21:12:43 10° W 21:14:25 23° NNW 21:16:06 10° NNE
STARLINK-1434 4.4 21:12:44 10° W 21:14:25 23° NNW 21:16:07 10° NNE
STARLINK-1418 4.4 21:12:44 10° W 21:14:25 23° NNW 21:16:07 10° NNE
STARLINK-1370 4.4 21:12:44 10° W 21:14:25 23° NNW 21:16:07 10° NNE
STARLINK-1403 4.4 21:12:45 10° W 21:14:26 23° NNW 21:16:08 10° NNE
STARLINK-1433 4.4 21:12:45 10° W 21:14:26 23° NNW 21:16:09 10° NNE
STARLINK-1411 4.4 21:12:47 10° W 21:14:28 23° NNW 21:16:10 10° NNE
STARLINK-1438 4.4 21:12:48 10° W 21:14:28 23° NNW 21:16:11 10° NNE
STARLINK-1412 4.4 21:12:48 10° W 21:14:29 23° NNW 21:16:11 10° NNE
STARLINK-1222 4.5 21:11:44 10° NW 21:14:29 29° NNE 21:16:07 18° ENE
USA 238 DEB 3.9 21:07:20 10° NW 21:14:37 87° WSW 21:19:44 23° SSE
USA 238 3.9 21:07:27 10° NW 21:14:44 88° SW 21:19:50 23° SSE
Landsat 7 3.8 21:11:34 21° S 21:14:49 82° WSW 21:19:36 10° NNW
Cosmos 968 Rocket 4.1 21:10:19 10° N 21:15:12 41° ENE 21:17:48 24° ESE
STARLINK-1214 4.4 21:12:53 10° NW 21:15:39 29° NNE 21:17:14 19° ENE
Cosmos 1975 Rocket 3.0 21:14:16 22° S 21:17:06 71° E 21:21:29 10° NNE
STARLINK-29 3.6 21:14:14 10° WSW 21:17:24 57° NW 21:20:36 10° NE
Cosmos 1025 Rocket 4.3 21:17:47 22° ESE 21:18:33 24° E 21:22:00 10° NE
STARLINK-1234 4.0 21:16:31 10° NW 21:19:50 43° NNE 21:21:27 24° E
STARLINK-1228 4.0 21:17:24 10° NW 21:20:50 44° NNE 21:22:31 25° E
STARLINK-1339 4.5 21:23:43 28° E 21:23:43 28° E 21:26:08 10° ENE
Cosmos 1378 4.1 21:19:13 10° SSW 21:22:45 45° W 21:26:20 10° N
COSMOS 2455 3.3 21:21:21 23° SSE 21:24:23 39° ESE 21:29:55 10° NE
Cosmos 2195 Rocket 4.5 21:19:52 16° S 21:25:05 81° E 21:31:22 10° N
Cosmos 1805 3.8 21:23:05 10° NNW 21:26:56 55° W 21:29:06 24° SSW
STARLINK-1377 4.0 21:28:58 37° ESE 21:28:58 37° ESE 21:32:13 10° ENE
STARLINK-1187 3.8 21:26:42 10° NW 21:29:49 43° NNE 21:30:51 31° E
Cosmos 1627 Rocket 4.5 21:26:40 18° S 21:31:34 82° E 21:38:00 10° N
Cosmos 1470 3.4 21:28:24 10° N 21:32:03 38° ENE 21:32:50 34° ESE
STARLINK-1353 3.8 21:32:52 41° SE 21:32:52 41° SE 21:36:24 10° ENE
Meteor 1-22 Rocket 4.3 21:28:59 10° NNW 21:34:47 75° W 21:38:09 25° S
STARLINK-1375 3.8 21:35:42 41° ESE 21:35:42 41° ESE 21:38:55 10° ENE
Cosmos 1726 4.1 21:34:22 10° NNE 21:36:52 17° ENE 21:37:13 17° E
Spot 2 Rocket 4.4 21:34:57 17° SSW 21:38:30 42° W 21:43:17 10° NNW
Milstar 3 Cent rocket 4.4 21:31:46 10° SW 21:39:57 38° SSE 21:56:03 10° E
STARLINK-1350 3.6 21:40:45 48° SE 21:40:55 49° SE 21:44:44 10° ENE
Cosmos 1733 3.7 21:37:59 10° NNW 21:41:42 54° W 21:43:09 32° SSW
Cosmos 1842 3.5 21:39:48 27° SSW 21:41:46 65° W 21:45:38 10° N
STARLINK-1346 4.5 21:44:17 25° ENE 21:44:17 25° ENE 21:45:46 10° ENE
RESURS DK-1 4.1 21:45:05 19° E 21:45:05 19° E 21:47:09 10° NE
STARLINK-1340 4.5 21:46:43 24° ENE 21:46:43 24° ENE 21:48:09 10° ENE
STARLINK-1352 3.5 21:44:45 51° SSE 21:45:07 53° SE 21:48:58 10° ENE
STARLINK-1356 4.5 21:47:02 25° ENE 21:47:02 25° ENE 21:48:29 10° ENE
STARLINK-1345 4.5 21:47:21 25° ENE 21:47:21 25° ENE 21:48:50 10° ENE
STARLINK-1355 4.4 21:47:39 25° ENE 21:47:39 25° ENE 21:49:08 10° NE
STARLINK-1321 4.4 21:48:00 25° ENE 21:48:00 25° ENE 21:49:28 10° NE
STARLINK-1358 4.4 21:48:21 25° ENE 21:48:21 25° ENE 21:49:50 10° NE
STARLINK-1332 4.4 21:48:38 26° ENE 21:48:38 26° ENE 21:50:09 10° NE
STARLINK-1348 4.4 21:48:58 26° ENE 21:48:58 26° ENE 21:50:29 10° NE
STARLINK-1330 4.4 21:49:18 26° ENE 21:49:18 26° ENE 21:50:49 10° NE
STARLINK-1363 4.4 21:49:37 26° ENE 21:49:37 26° ENE 21:51:09 10° NE
Cosmos 1455 Rocket 3.0 21:43:51 10° N 21:48:11 80° W 21:49:41 40° S
STARLINK-1337 4.4 21:49:57 26° ENE 21:49:57 26° ENE 21:51:31 10° NE
Meteor 2-13 Rocket 4.4 21:44:28 22° S 21:48:40 87° W 21:54:51 10° N
STARLINK-1342 4.3 21:50:17 27° ENE 21:50:17 27° ENE 21:51:52 10° NE
STARLINK-1364 4.3 21:50:37 27° ENE 21:50:37 27° ENE 21:52:13 10° NE
STARLINK-1368 3.4 21:48:46 52° S 21:49:19 58° SE 21:53:12 10° ENE
STARLINK-1376 4.3 21:50:56 27° ENE 21:50:56 27° ENE 21:52:32 10° NE
Cosmos 2263 4.4 21:44:08 10° SSW 21:49:43 71° WNW 21:55:20 10° NNE
STARLINK-1360 4.3 21:51:15 28° ENE 21:51:15 28° ENE 21:52:52 10° NE
STARLINK-1361 4.3 21:51:36 28° ENE 21:51:36 28° ENE 21:53:13 10° NE
STARLINK-1367 4.2 21:51:50 29° ENE 21:51:50 29° ENE 21:53:33 10° NE
STARLINK-1366 4.3 21:52:14 28° ENE 21:52:14 28° ENE 21:53:54 10° NE
SPOT 5 3.2 21:48:42 31° S 21:51:15 74° WSW 21:56:39 10° NNW
Cosmos 1953 3.4 21:48:07 10° NNE 21:51:36 29° ENE 21:51:59 28° E
CENTAUR R/B 3.2 21:44:40 10° NW 21:52:54 87° SW 21:57:55 30° SSE
Cosmos 2026 Rocket 4.2 21:48:44 18° SSW 21:53:31 73° W 21:59:55 10° N
STARLINK-1369 3.4 21:52:47 51° S 21:53:31 63° SE 21:57:26 10° ENE
S3M 4.4 21:47:55 10° N 21:53:54 49° ENE 21:56:24 32° SE
Cosmos 1503 Rocket 4.1 21:49:33 10° NNW 21:54:52 67° ENE 21:56:49 39° SE
CARTOSAT-1 4.1 21:54:31 33° SSW 21:56:09 53° W 22:00:23 10° NNW
Cosmos 1271 Rocket 2.6 21:56:17 54° S 21:57:08 88° E 22:01:06 10° N
STARLINK-1372 3.3 21:56:48 48° SSW 21:57:44 69° SE 22:01:41 10° ENE
SL-4 R/B 3.9 21:54:40 10° W 21:59:07 38° NNW 22:03:40 10° NE
Terra 1.8 21:58:22 42° S 22:00:00 82° WSW 22:04:48 10° NNW
ATLAS 3B R/B 3.2 21:53:29 10° NNW 22:00:09 54° NE 22:04:04 26° ESE
STARLINK-1378 3.3 21:59:49 55° SSW 22:00:32 73° SE 22:04:25 10° NE
Cosmos 1943 Rocket 4.0 21:58:04 10° WSW 22:02:55 30° NW 22:07:49 10° N
BREEZE-M DEB (TANK) 3.1 21:53:19 10° SW 22:03:17 52° SSE 22:06:46 10° ENE
STARLINK-1379 3.2 22:03:10 57° SSW 22:03:52 78° SE 22:07:45 10° NE
Cosmos 1553 Rocket 3.9 21:58:46 10° N 22:05:02 81° E 22:07:36 38° SSE
FALCON 9 DEB 4.4 22:02:54 10° WSW 22:06:10 41° NNW 22:09:27 10° NE
Cosmos 1174 3.5 22:06:48 64° W 22:07:06 70° WNW 22:10:45 10° NNE
STARLINK-1329 3.3 22:06:16 52° SW 22:07:07 82° SE 22:11:02 10° NE
ATLAS CENTAUR R/B 2.0 22:04:18 11° SW 22:08:27 57° NW 22:12:33 10° NNE
Cosmos 1707 2.6 22:08:16 70° S 22:08:42 86° E 22:12:35 10° N
Cosmos 1833 4.1 22:03:40 10° NNW 22:09:20 83° WSW 22:11:17 43° SSE
SL-27 R/B 4.1 22:06:39 10° NW 22:09:33 24° W 22:10:06 23° WSW
Cosmos 1758 3.3 22:05:46 10° N 22:09:51 83° W 22:10:28 63° S
STARLINK-1235 3.4 22:07:20 10° WNW 22:10:14 59° W 22:10:14 59° W
SeaSat 1 3.7 22:07:31 10° NE 22:11:04 26° E 22:11:04 26° E
STARLINK-1362 3.3 22:11:07 41° SW 22:12:25 90° NW 22:16:22 10° NE
NOSS 3-2 (C) 4.3 22:05:03 10° NW 22:12:40 63° WSW 22:16:47 32° S
COSMOS 2487 2.8 22:10:34 10° N 22:13:45 53° NE 22:13:45 53° NE
Cosmos 1354 Rocket 3.9 22:11:23 10° NNW 22:16:44 89° WSW 22:18:14 49° SSE
STARLINK-1373 3.4 22:15:16 37° WSW 22:16:44 83° NW 22:20:41 10° NE
Cosmos 1536 Rocket 3.4 22:16:15 59° S 22:17:03 88° W 22:21:27 10° N
NOSS 3-4 (A) 3.9 22:13:40 10° SW 22:19:30 58° NW 22:25:44 10° NNE
NOSS 3-4 (C) 3.9 22:13:45 10° SW 22:19:36 59° NW 22:25:50 10° NNE
STARLINK-1390 3.4 22:18:23 41° WSW 22:19:37 79° NW 22:23:30 10° NE
EO 1 Del DPAF 4.0 22:16:50 10° NNE 22:19:51 40° ENE 22:19:51 40° ENE
Cosmos 1656 Rocket 4.3 22:18:59 13° SW 22:23:54 53° WNW 22:29:21 10° NNE
Cosmos 1242 Rocket 4.5 22:22:43 19° WSW 22:24:16 26° WNW 22:27:25 10° NNW
STARLINK-1365 3.7 22:22:30 23° WSW 22:24:50 71° NW 22:28:49 10° NE
Cosmos 1544 Rocket 4.4 22:21:23 10° NNW 22:25:29 42° W 22:26:32 35° SW
Cosmos 2266 Rocket 3.9 22:24:05 44° SSE 22:25:55 65° E 22:31:54 10° NNE
Cosmos 2084 3.4 22:26:10 68° S 22:26:42 80° ESE 22:31:10 10° NE
Meteor 1-16 Rocket 4.2 22:21:27 10° N 22:26:51 62° ENE 22:28:05 48° SE
Cosmos 1655 Rocket 3.9 22:25:20 38° S 22:27:54 88° W 22:34:14 10° N
STARLINK-1201 4.4 22:24:37 10° NW 22:28:38 47° NNE 22:29:42 37° ENE
STARLINK-1206 4.3 22:29:34 10° NW 22:33:38 51° NNE 22:34:29 43° ENE
Cosmos 2369 Rocket 4.3 22:30:18 10° WSW 22:34:52 25° NW 22:39:27 10° N
STARLINK-1205 4.1 22:34:32 10° NW 22:38:37 55° NNE 22:39:15 49° ENE
STARLINK-1338 4.0 22:37:51 27° W 22:39:37 54° NNW 22:43:20 10° NE
Cosmos 2227 Rocket 4.2 22:35:44 10° N 22:39:54 20° NE 22:43:18 13° E
Spot 4 3.9 22:42:23 58° ESE 22:43:06 67° ENE 22:47:55 10° N
Cosmos 2292 Rocket 3.7 22:44:11 48° N 22:44:11 48° N 22:46:27 10° N
STARLINK-1218 3.9 22:39:31 10° NW 22:43:38 59° NNE 22:44:03 55° ENE
ATLAS 2AS CENTAUR R/B 4.0 22:40:10 10° WSW 22:47:47 47° NW 22:55:24 10° NNE
Cosmos 2098 Rocket 4.4 22:45:55 43° SSE 22:48:28 70° E 22:55:53 10° NNE
STARLINK-1254 3.8 22:44:29 10° NW 22:48:37 64° NE 22:48:49 63° NE
STARLINK-1371 4.4 22:46:30 18° W 22:49:04 47° NNW 22:52:48 10° NE
Cosmos 1908 3.7 22:46:28 10° N 22:49:45 51° NE 22:49:45 51° NE
Cosmos 2058 Rocket 4.4 22:46:43 10° NNE 22:50:35 28° ENE 22:50:50 28° E
Cosmos 883 Rocket 4.4 22:44:33 10° N 22:50:43 82° E 22:52:19 52° SSE
Cosmos 1606 Rocket 3.8 22:47:21 10° N 22:51:37 55° E 22:51:37 55° E
Meteor 2-5 Rocket 3.9 22:51:49 48° ESE 22:52:34 52° E 22:58:01 10° NNE
STARLINK-1341 4.5 22:50:24 17° W 22:53:06 44° NNW 22:56:49 10° NE
STARLINK-1231 3.7 22:49:26 10° NW 22:53:34 69° NE 22:53:35 69° NE
ALOS 2 3.3 22:53:44 40° E 22:54:01 41° ENE 22:58:08 10° N
Cosmos 1867 4.3 22:50:01 10° NW 22:55:03 38° WSW 22:55:40 37° SW
KORONAS-FOTON 4.1 22:56:12 61° NNE 22:56:12 61° NNE 22:59:29 10° N
CZ-4C R/B 3.5 22:59:37 22° E 22:59:37 22° E 23:02:45 10° ENE
STARLINK-1232 3.7 22:54:27 10° NW 22:58:25 73° N 22:58:25 73° N
In-Cosmos 22 4.4 22:59:30 42° SW 23:01:00 57° WNW 23:06:14 10° N
STARLINK-1208 3.8 22:59:23 10° NW 23:03:10 71° NNW 23:03:10 71° NNW
Cosmos 1300 4.3 23:02:14 10° NNE 23:05:03 25° ENE 23:05:03 25° ENE
STARLINK-1271 3.9 23:04:23 10° NW 23:07:58 65° NW 23:07:58 65° NW
COSMOS 2455 4.1 23:04:46 10° WSW 23:10:18 37° NW 23:15:54 10° NNE
Cosmos 1674 3.3 23:11:24 53° NW 23:11:24 53° NW 23:14:41 10° N
Nimbus 7 Rocket 4.4 23:05:24 10° NNE 23:11:29 79° ESE 23:12:50 56° S
Cosmos 1726 3.6 23:08:50 10° NNW 23:11:43 29° WNW 23:11:43 29° WNW
STARLINK-1154 4.0 23:09:21 10° NW 23:12:44 58° WNW 23:12:44 58° WNW
Cosmos 1340 Rocket 4.1 23:10:19 10° NNW 23:13:48 33° W 23:13:48 33° W
Cosmos 1777 Rocket 3.9 23:10:51 10° NNW 23:16:05 74° WSW 23:16:35 68° SSW
Cosmos 921 Rocket 3.0 23:18:04 76° NNE 23:18:04 76° NNE 23:22:08 10° NNE
STARLINK-1197 4.2 23:14:20 10° NW 23:17:30 51° WNW 23:17:30 51° WNW
Cosmos 2228 3.1 23:14:29 10° NNW 23:18:24 70° NW 23:18:24 70° NW
Thor Agena Rocket 4.4 23:14:38 10° N 23:19:37 44° WNW 23:21:25 32° WSW
Cosmos 220 Rocket 4.0 23:20:04 79° NNE 23:20:04 79° NNE 23:24:17 10° NNE
RESURS DK-1 3.7 23:20:55 30° W 23:21:50 34° WNW 23:25:38 10° N
STARLINK-1198 4.4 23:19:20 10° WNW 23:22:18 44° WNW 23:22:18 44° WNW
Timation 2 Rocket 3.8 23:18:01 10° NNW 23:24:14 74° WSW 23:25:18 60° S
Lacrosse 4 Rocket 3.7 23:22:09 10° N 23:25:15 19° NE 23:26:59 15° ENE
Cosmos 1980 Rocket 4.2 23:25:34 13° E 23:25:34 13° E 23:28:08 10° ENE
Okean 1-7 Rocket 3.6 23:25:56 74° ENE 23:25:56 74° ENE 23:30:16 10° N
BREEZE-M R/B 4.0 23:16:18 10° WSW 23:25:58 77° NNW 23:30:23 10° ENE
Cosmos 1953 4.3 23:24:55 10° NW 23:27:41 19° W 23:27:41 19° W
USA 215 4.1 23:27:43 10° E 23:33:56 47° NNE 23:40:09 10° NW
Cosmos 1892 Rocket 3.7 23:34:23 68° WNW 23:34:23 68° WNW 23:38:33 10° N
Cosmos 1726 Rocket 3.8 23:30:58 10° NNW 23:34:55 58° WNW 23:34:55 58° WNW
Cosmos 1809 Rocket 4.4 23:33:52 54° SSW 23:35:19 77° W 23:41:33 10° N
Meteor 1-24 Rocket 3.5 23:36:46 70° SSW 23:37:25 86° W 23:42:58 10° N
Helios 1A 3.2 23:38:21 62° NE 23:38:21 62° NE 23:42:13 10° N
ATLAS 5 CENTAUR R/B 4.2 23:36:34 10° W 23:38:38 14° NW 23:40:06 10° NNW
Nadezhda 2 Rocket 4.5 23:40:15 54° SW 23:41:39 72° W 23:47:49 10° N
Cosmos 1626 3.0 23:42:49 48° NNW 23:42:49 48° NNW 23:45:39 10° N
Cosmos 2315 Rocket 4.4 23:36:10 10° NNW 23:42:06 49° W 23:43:30 42° SW
SJ 16-02 2.1 23:40:30 10° N 23:44:44 42° ENE 23:44:59 42° ENE
Cosmos 2297 Rocket 2.3 23:41:15 10° NNW 23:46:54 70° ENE 23:48:02 55° ESE
Cosmos 1656 3.5 23:48:16 69° SSE 23:48:52 77° ESE 23:54:29 10° NNE
Cosmos 2219 3.0 23:43:32 10° NNW 23:49:13 89° ENE 23:50:00 68° SSE
SeaSat 1 3.4 23:44:36 10° NNE 23:49:15 43° WNW 23:50:50 33° W
ATLAS 3B R/B 3.5 23:44:35 10° NW 23:50:35 33° WSW 23:51:18 32° SW
STARLINK-1138 4.4 23:46:33 10° NW 23:50:35 49° NNE 23:51:00 47° NE
Cosmos 468 Rocket 4.1 23:52:35 58° ESE 23:52:36 58° ESE 23:57:38 10° NNE
STARLINK-1143 4.2 23:51:31 10° NW 23:55:35 53° NNE 23:55:48 52° NE
